Regional Weather Roundup
Issued by NWS

Home | Current Version | Previous Version | Text Only | Print | Product List | Glossary On
Versions: 1 2 3 4 5 6 7 8 9 10 11 12 13 14 15 16 17 18 19 20 21 22 23 24 25 26 27 28 29 30 31 32 33 34 35 36 37 38 39 40 41 42 43 44 45 46 47 48 49 50
000
ASUS42 KTBW 031317
RWRFL
FLORIDA REGIONAL WEATHER ROUNDUP
NATIONAL WEATHER SERVICE TAMPA BAY RUSKIN FL
900 AM EDT MON AUG 03 2015

NOTE: "FAIR" INDICATES FEW OR NO CLOUDS BELOW 12,000 FEET WITH NO
SIGNIFICANT WEATHER AND/OR OBSTRUCTIONS TO VISIBILITY.


FLZ001>010-012>015-112-114-115-031400-
PANHANDLE FLORIDA

CITY           SKY/WX    TMP DP  RH WIND       PRES   REMARKS
PENSACOLA      MOSUNNY   82  72  71 NW5       29.91R
PENSACOLA NAS  PTSUNNY   82  73  74 NW7       29.90R
MILTON NAS     PTSUNNY   80  69  69 VRB5      29.92
CRESTVIEW      SUNNY     81  69  67 NW5       29.92R
DUKE FIELD     FAIR      80  72  75 NW6       29.90R
VALPARAISO     PTSUNNY   82  73  74 NW6       29.90S
MARY ESTHER    MOSUNNY   81  73  77 N9        29.89R
TRI COUNTY     FAIR      78  76  93 CALM      29.91S
PANAMA CITY    FAIR      82  75  79 NW7       29.89S
TYNDALL AFB    MOSUNNY   84  77  79 NW6       29.90R
APALACHICOLA   PTSUNNY   85  76  74 NW8       29.90R

STATION/POSITION SKY/WX   TEMP    WIND        PRES    WAVE   SWELL
                          AIR SEA DIR/SP/G            HT/PER HT/PER
                          (F)     (DEG/KT/KT) (MB)    (FT/S) (FT/S)
30.1N   87.6W              85 86  320/ 10/ 12 1012.0R   2/ 5   2/ 5
29.2N   88.2W              86 86   20/  6/  6 1012.9R   2/ 6   2/ 6
28.8N   86.0W              85 86  280/ 16/ 17 1013.0R   5/ 6
PANAMA CITY BEAC           81 85  340/  3/  4 1012.1R
CAPE SAN BLAS    NOT AVBL
TOWER C                    83     340/ 11/ 12 1012.4R
28.5N   84.5W              85 84  270/ 16/ 17 1012.6R   6/ 7

$$
FLZ011-016>038-118-127-128-134-139-239-031400-
NORTH FLORIDA

CITY           SKY/WX    TMP DP  RH WIND       PRES   REMARKS
MARIANNA       SUNNY     79  77  94 NE5       29.89R
TALLAHASSEE    MOSUNNY   82  75  79 N5        29.89R
PERRY          CLOUDY    78  78 100 W10       29.89R
CROSS CITY       N/A     78  75  90 W9        29.87R
LAKE CITY      DRIZZLE   73  73 100 CALM      29.86R
GAINESVILLE    LGT RAIN  77  75  93 SW6       29.85S FOG
MAYPORT NAS    PTSUNNY   81  72  74 S13       29.87S
JACKSONVILLE   PTSUNNY   77  73  87 S8        29.87R
JAX NAS        PTSUNNY   81  74  79 S13       29.87S
JAX CRAIG      CLOUDY    79  71  76 S10G24    29.87R
JAX CECIL      CLOUDY    75  73  94 S9        29.87R FOG
FERNANDINA BEA CLOUDY    82  72  69 S8        29.87S
ST AUGUSTINE   CLOUDY    80  72  76 S13G20    29.88S

STATION/POSITION SKY/WX   TEMP    WIND        PRES    WAVE   SWELL
                          AIR SEA DIR/SP/G            HT/PER HT/PER
                          (F)     (DEG/KT/KT) (MB)    (FT/S) (FT/S)
SHELL POINT                77     330/  7/ 10   N/A
KEATON BEACH               78     310/  7/  9 1012.2R
CEDAR KEY                  76     260/ 12/ 16 1012.2R
FERNANDINA                 79 83  160/  8/ 14 1010.8R
30.7N   81.3W                 82                N/A     5/ 5   2/11
MAYPORT                    78 83  170/  4/ 12 1011.7R
31.4N   80.9W              81 83  160/ 16/ 17 1012.7R   4/ 6   2/ 9
ST AUGUSTINE               78 78  170/ 19/ 21 1012.4F

$$
FLZ040-043>046-052-053-057-058-063-144-031400-
INTERIOR CENTRAL FLORIDA

CITY           SKY/WX    TMP DP  RH WIND       PRES   REMARKS
OCALA          LGT RAIN  75  73  94 SW10      29.88R FOG
THE VILLAGES     N/A     75  75 100 S9G18     29.81R
LEESBURG       CLOUDY    75  72  90 S18G24    29.92R
SANFORD        CLOUDY    78  71  79 S12       29.93R
ORLANDO EXEC   CLOUDY    78  72  81 SW16G22   29.95R
ORLANDO INTL   CLOUDY    77  72  84 SW13      29.97R
KISSIMMEE      CLOUDY    75  73  94 W8        29.98R
WINTER HAVEN   LGT RAIN  75  73  93 SW9       29.99S FOG
LAKELAND       LGT RAIN  73  72  94 W7        29.98S FOG
BARTOW         LGT RAIN  73 N/A N/A SW8       29.99R
OKEECHOBEE       N/A    N/A N/A N/A S6        29.99R

$$
FLZ041-047-054-059-064-141-147-031400-
EAST CENTRAL FLORIDA

CITY           SKY/WX    TMP DP  RH WIND       PRES   REMARKS
ORMOND BEACH   PTSUNNY  N/A N/A N/A S14       29.92R
DAYTONA BEACH  PTSUNNY   78  70  76 S12       29.93R
DELAND           N/A     77  72  83 S15G21    29.93S
NEW SMYRNA BEA MOSUNNY   79  70  73 S12       29.93
JFK SPACE CTR  CLOUDY    80  71  73 S9        29.93S
TITUSVILLE     MOSUNNY   79  72  78 S15       29.95R
CAPE CANAVERAL CLOUDY    79  74  84 S10       29.94R
PATRICK AFB    CLOUDY    80  71  74 S15       29.95R
MELBOURNE      CLOUDY    79  70  74 S10       29.96R
VERO BEACH     PTSUNNY   80  72  76 S8        29.98R
FT PIERCE      PTSUNNY   81  74  79 SW8       29.98R
STUART         MOSUNNY   75  68  78 SW7       29.97S

STATION/POSITION SKY/WX   TEMP    WIND        PRES    WAVE   SWELL
                          AIR SEA DIR/SP/G            HT/PER HT/PER
                          (F)     (DEG/KT/KT) (MB)    (FT/S) (FT/S)
28.5N   80.2W              81 82  180/ 16/ 17 1014.1R
28.9N   78.5W              83 84  170/ 16/ 19 1015.2R
TRIDENT PIER               76 78  180/ 10/ 12 1014.6R
28.4N   80.5W                 76                N/A     2/ 3
27.5N   80.2W                 79                N/A     1/11

$$
FLZ050-056-061-142-242-148-248-149-249-151-251-155-255-
160-260-031400-
WEST CENTRAL FLORIDA

CITY           SKY/WX    TMP DP  RH WIND       PRES   REMARKS
CRYSTAL RIVER  RAIN      77  75  94 W9        29.90R
INVERNESS      RAIN      73  73 100 S6        29.91S
BROOKSVILLE    LGT RAIN  74  72  93 S7        29.94R
ZEPHYRHILLS    RAIN      68  68 100 CALM      29.98R
CLEARWATER     HVY RAIN  73  71  93 S10       29.97R FOG
TAMPA INTL     TSTM      74  71  91 W13       29.99R FOG
TAMPA EXEC     RAIN      75  72  88 SW7       29.98R
PLANT CITY     HVY RAIN  73  73 100 W3        30.00R
MACDILL AFB    RAIN      73  73 100 SW14      29.97S FOG
PETER O KNIGHT LGT RAIN  73  72  94 W8        29.98R
ST PETERSBURG  HVY RAIN  75  72  90 W14G21    29.97R FOG
SARASOTA       RAIN      76  73  91 SW17G24   29.99R FOG
VENICE         LGT RAIN  77  73  88 W23G33    29.99R

STATION/POSITION SKY/WX   TEMP    WIND        PRES    WAVE   SWELL
                          AIR SEA DIR/SP/G            HT/PER HT/PER
                          (F)     (DEG/KT/KT) (MB)    (FT/S) (FT/S)
CEDAR KEY                  76     260/ 12/ 16 1012.2R
28.5N   84.5W              85 84  270/ 16/ 17 1012.6R   6/ 7
27.3N   84.2W                 83                N/A     5/ 6
CLEARWATER BEACH           79 80  220/ 26/ 30 1013.0R
MIDDLE TAMPA BAY           78     250/ 21/ 24 1014.7R
VENICE                     78 83  280/ 25/ 28 1015.1R

$$
FLZ066-069-070-075>078-162-262-165-265-031400-
SOUTHWEST FLORIDA AND KEYS

CITY           SKY/WX    TMP DP  RH WIND       PRES   REMARKS
PUNTA GORDA    CLOUDY    78  74  87 S6        29.99R
FT MYERS       CLOUDY    79  72  79 S7        29.97R
SOUTHWEST INTL CLOUDY    79  73  82 S7        29.98R
NAPLES         CLOUDY    83  77  82 SE3       29.97R
MARCO ISLAND   MOSUNNY   81  73  78 SE7       29.97S
MARATHON       SUNNY     87  76  69 E3        29.98R HX  97
KEY WEST NAS   MOSUNNY   86  73  65 SE6       29.98R
KEY WEST INTL  SUNNY     85  73  67 SE5       29.98R

STATION/POSITION SKY/WX   TEMP    WIND        PRES    WAVE   SWELL
                          AIR SEA DIR/SP/G            HT/PER HT/PER
                          (F)     (DEG/KT/KT) (MB)    (FT/S) (FT/S)
VENICE                     78 83  280/ 25/ 28 1015.1R
NAPLES                        85              1015.6R
26.0N   85.6W              84 84  230/  4/  4 1014.9R   2/ 3   2/ 4
DRY TORTUGAS               84     160/  7/  7 1014.6R
NW FL BAY                  85     140/  5/  7 1014.8
SAND KEY                   85     100/  2/  3 1015.1R
SOMBRERO KEY               85     130/  6/  7 1015.9R
LONG KEY                   85 87  170/  6/  7 1016.1R
MOLASSES REEF              83 87  160/ 12/ 14 1015.4R

$$
FLZ067-068-071>074-168-172>174-031400-
SOUTHEAST FLORIDA

CITY           SKY/WX    TMP DP  RH WIND       PRES   REMARKS
W PALM BEACH   PTSUNNY   82  75  79 S8        29.99R
FT LAUDER-EXEC MOSUNNY   81  75  82 S8        29.99R
FT LAUDERDALE  PTSUNNY   83  75  77 S10       29.98R
POMPANO BEACH  SUNNY     83  75  77 S6        29.99R
PEMBROKE PINES SUNNY     84  75  74 S6        30.00R
OPA LOCKA      MOSUNNY   85  75  72 S13       29.99R
MIAMI          PTSUNNY   84  74  71 S7        29.99R
WEST KENDALL   MOSUNNY   84  75  74 S9        29.99R
HOMESTEAD      MOSUNNY   84  74  72 S8        29.99R

STATION/POSITION SKY/WX   TEMP    WIND        PRES    WAVE   SWELL
                          AIR SEA DIR/SP/G            HT/PER HT/PER
                          (F)     (DEG/KT/KT) (MB)    (FT/S) (FT/S)
PORT EVERGLADES            84     160/ 11/ 14 1015.5R
VIRGINIA KEY               83 86  180/ 10/ 12 1014.9R



USA.gov is the U.S. government's official web portal to all federal, state and local government web resources and services.